Slidell, LA

9:41 AM CST on January 20, 2018 (GMT -0600)
Slidell

Weather History for KASD - November, 2012

Change the Weather History Date:

Friday, November 30, 2012

  Actual Average (KNEW) Record (KNEW)
Temperature  
Mean Temperature 57 °F -  
Max Temperature 72 °F 66 °F 84 °F (1981)
Min Temperature 42 °F 52 °F 28 °F (1979)
Degree Days  
Heating Degree Days 8    
Growing Degree Days 7 (Base 50)    
Moisture  
Dew Point 48 °F    
Average Humidity 85    
Maximum Humidity 100    
Minimum Humidity 49    
Precipitation  
Precipitation 0.01 in - - ()
Sea Level Pressure  
Sea Level Pressure 30.23 in    
Wind  
Wind Speed 1 mph (ESE)    
Max Wind Speed 5 mph    
Max Gust Speed -    
Visibility 7 miles    
Events Fog    
Averages and records for this station are not official NWS values.
T = Trace of Precipitation, MM = Missing Value Source: NWS Daily Summary

Daily Weather History Graph

Daily Weather History Graph

Search for Another Location

Airport or City:

Trip Planner

Search our weather history database for the weather conditions in past years. The results will help you decide how hot, cold, wet, or windy it might be!

Date:

Astronomy

Nov. 30, 2012 Rise Set
Actual Time 6:37 AM CST 4:58 PM CST
Civil Twilight 6:11 AM CST 5:24 PM CST
Nautical Twilight 5:42 AM CST 5:54 PM CST
Astronomical Twilight 5:13 AM CST 6:23 PM CST
Moon 6:52 PM CST (11/30) 8:10 AM CST (11/30)
Length of Visible Light 11h 12m
Length of Day
10h 20m
Waning Gibbous, 96% of the Moon is Illuminated
Nov 30
Waning Gibbous
Dec 6
Last Quarter
Dec 13
New
Dec 19
First Quarter
Dec 28
Full

Hourly Weather History & Observations

Time (CST) Temp. Windchill Dew Point Humidity Pressure Visibility Wind Dir Wind Speed Gust Speed Precip Events Conditions
12:53 AM 43.0 °F 40.3 °F 42.1 °F 97% 30.27 in 6.0 mi NNE 4.6 mph - N/A   Clear
1:53 AM 43.0 °F - 41.0 °F 93% 30.26 in 9.0 mi Calm Calm - N/A   Scattered Clouds
2:53 AM 43.0 °F - 42.1 °F 97% 30.25 in 7.0 mi Calm Calm - N/A   Partly Cloudy
3:53 AM 45.0 °F 43.5 °F 44.1 °F 97% 30.25 in 9.0 mi NE 3.5 mph - N/A   Clear
4:53 AM 46.9 °F - 45.0 °F 93% 30.25 in 9.0 mi Calm Calm - N/A   Clear
5:53 AM 43.0 °F - 42.1 °F 97% 30.25 in 7.0 mi Calm Calm - N/A   Clear
6:53 AM 42.1 °F - 41.0 °F 96% 30.26 in 6.0 mi Calm Calm - N/A   Clear
7:53 AM 50.0 °F - 48.0 °F 93% 30.27 in 8.0 mi Calm Calm - N/A   Clear
8:53 AM 57.0 °F - 52.0 °F 83% 30.29 in 10.0 mi Calm Calm - N/A   Clear
9:53 AM 64.0 °F - 55.0 °F 73% 30.30 in 10.0 mi Variable 3.5 mph - 0.01 in   Clear
10:53 AM 68.0 °F - 57.0 °F 68% 30.28 in 10.0 mi Calm Calm - N/A   Clear
11:53 AM 70.0 °F - 55.0 °F 59% 30.25 in 10.0 mi Calm Calm - N/A   Partly Cloudy
12:53 PM 72.0 °F - 53.1 °F 51% 30.22 in 10.0 mi Calm Calm - N/A   Partly Cloudy
1:53 PM 71.1 °F - 51.1 °F 49% 30.20 in 10.0 mi South 3.5 mph - N/A   Partly Cloudy
2:53 PM 71.1 °F - 53.1 °F 53% 30.19 in 10.0 mi SSW 4.6 mph - N/A   Clear
3:53 PM 70.0 °F - 50.0 °F 49% 30.19 in 10.0 mi South 4.6 mph - N/A   Clear
4:53 PM 63.0 °F - 55.0 °F 75% 30.19 in 10.0 mi Calm Calm - N/A   Clear
5:53 PM 55.9 °F - 54.0 °F 93% 30.21 in 10.0 mi Calm Calm - N/A   Clear
6:53 PM 53.1 °F - 51.1 °F 93% 30.22 in 10.0 mi Calm Calm - N/A   Clear
7:53 PM 50.0 °F - 48.9 °F 96% 30.22 in 10.0 mi Calm Calm - N/A   Clear
9:22 PM 48.2 °F - 46.4 °F 93% 30.22 in 10.0 mi Calm Calm - N/A   Scattered Clouds
9:39 PM 46.4 °F 45.2 °F 44.6 °F 93% 30.22 in 2.5 mi North 3.5 mph - N/A   Mostly Cloudy
9:46 PM 44.6 °F - 44.6 °F 100% 30.22 in 0.8 mi Calm Calm - N/A   Mist
9:53 PM 46.0 °F - 46.0 °F 100% 30.22 in 0.2 mi Calm Calm - N/A Fog Fog
10:12 PM 46.4 °F - 46.4 °F 100% 30.22 in 1.5 mi Calm Calm - N/A   Overcast
10:33 PM 44.6 °F - 44.6 °F 100% 30.22 in 0.5 mi Calm Calm - N/A Fog Fog
10:53 PM 46.0 °F - 46.0 °F 100% 30.22 in 0.2 mi Calm Calm - N/A Fog Fog
11:53 PM 45.0 °F - 45.0 °F 100% 30.21 in 0.2 mi Calm Calm - N/A Fog Fog